K7SKM Weather Reports


Display with metric or nautical units.
time (UTC)temp
F
wind
direction
speed
MPH
gust
MPH
rain 1hr
in
rain 24hr
in
rain mn
in
humidity
%
barometer
mb
20260509042413 56 161 0.0 0.0 0.00 0.00 0.00 68 1027.1
20260509041909 56 161 0.0 0.0 0.00 0.00 0.00 68 1027.1
20260509041407 56 147 0.0 0.0 0.00 0.00 0.00 67 1026.9
20260509040905 56 191 0.0 0.0 0.00 0.00 0.00 67 1027.0
20260509040402 56 240 0.0 0.0 0.00 0.00 0.00 66 1026.9
20260509035859 57 190 0.0 0.0 0.00 0.00 0.00 66 1026.9
20260509035356 57 245 0.0 0.0 0.00 0.00 0.00 65 1026.8
20260509034852 57 250 0.0 0.0 0.00 0.00 0.00 64 1026.7
20260509034350 57 252 0.0 0.0 0.00 0.00 0.00 64 1026.7
20260509033847 57 263 0.0 0.0 0.00 0.00 0.00 64 1026.6
20260509033344 58 289 0.0 0.0 0.00 0.00 0.00 63 1026.5
20260509032840 58 206 0.0 0.0 0.00 0.00 0.00 63 1026.6
20260509032338 58 212 0.0 0.0 0.00 0.00 0.00 62 1026.5
20260509031836 59 223 0.0 0.0 0.00 0.00 0.00 61 1026.3
20260509031333 59 275 0.0 3.0 0.00 0.00 0.00 60 1026.4
20260509030830 59 243 0.0 0.0 0.00 0.00 0.00 60 1026.2
20260509030328 60 214 0.0 3.0 0.00 0.00 0.00 59 1026.3
20260509025825 60 290 0.0 3.0 0.00 0.00 0.00 58 1026.2
20260509025320 60 306 1.0 5.0 0.00 0.00 0.00 58 1026.3
20260509024816 60 350 4.0 10.0 0.00 0.00 0.00 57 1026.3
20260509024312 60 237 0.0 3.0 0.00 0.00 0.00 58 1026.1
20260509023809 61 211 0.0 0.0 0.00 0.00 0.00 57 1026.0
20260509023307 61 240 0.0 0.0 0.00 0.00 0.00 56 1026.3
20260509022803 61 273 0.0 0.0 0.00 0.00 0.00 56 1026.1
20260509022301 62 289 2.0 5.0 0.00 0.00 0.00 55 1026.1
20260509021757 61 282 0.0 5.0 0.00 0.00 0.00 55 1025.9
20260509021254 62 231 0.0 0.0 0.00 0.00 0.00 54 1025.9
20260509020752 62 242 0.0 5.0 0.00 0.00 0.00 54 1026.1
20260509020250 62 240 0.0 0.0 0.00 0.00 0.00 53 1026.0
20260509015747 62 223 0.0 0.0 0.00 0.00 0.00 54 1026.0
20260509015245 62 278 4.0 7.0 0.00 0.00 0.00 53 1026.1
20260509014741 62 311 5.0 7.0 0.00 0.00 0.00 52 1026.0
20260509014239 62 282 0.0 3.0 0.00 0.00 0.00 52 1026.0
20260509013735 62 329 1.0 5.0 0.00 0.00 0.00 52 1026.1
20260509013230 62 244 0.0 3.0 0.00 0.00 0.00 52 1025.9
20260509012727 62 236 0.0 7.0 0.00 0.00 0.00 52 1026.0
20260509012224 63 303 3.0 5.0 0.00 0.00 0.00 51 1026.1
20260509011722 63 269 0.0 7.0 0.00 0.00 0.00 51 1025.9
20260509011219 63 268 0.0 0.0 0.00 0.00 0.00 51 1026.1
20260509010717 62 289 0.0 7.0 0.00 0.00 0.00 51 1026.2
20260509010213 62 329 3.0 7.0 0.00 0.00 0.00 51 1026.1
20260509005711 63 295 1.0 7.0 0.00 0.00 0.00 50 1026.1
20260509005208 63 214 1.0 5.0 0.00 0.00 0.00 51 1026.2
20260509004702 62 303 5.0 10.0 0.00 0.00 0.00 51 1026.2
20260509004200 62 287 0.0 12.0 0.00 0.00 0.00 51 1026.2
20260509003658 63 310 2.0 10.0 0.00 0.00 0.00 50 1026.3
20260509003155 64 254 0.0 7.0 0.00 0.00 0.00 50 1026.1
20260509002653 64 283 5.0 10.0 0.00 0.00 0.00 48 1026.0
20260509002150 64 223 0.0 5.0 0.00 0.00 0.00 49 1026.2
20260509001648 64 293 4.0 10.0 0.00 0.00 0.00 48 1026.2
20260509001143 64 317 4.0 7.0 0.00 0.00 0.00 49 1026.0
20260509000641 63 270 1.0 10.0 0.00 0.00 0.00 49 1026.1
20260509000138 66 249 0.0 5.0 0.00 0.00 0.00 47 1026.1
20260508235635 67 296 1.0 3.0 0.00 0.00 0.00 43 1026.0
20260508235132 66 276 0.0 5.0 0.00 0.00 0.00 45 1026.1
20260508234629 66 223 0.0 0.0 0.00 0.00 0.00 45 1025.9
20260508234125 65 287 0.0 5.0 0.00 0.00 0.00 47 1025.9
20260508233625 63 275 0.0 7.0 0.00 0.00 0.00 48 1025.9
20260508233122 63 117 0.0 7.0 0.00 0.00 0.00 48 1025.8
20260508232619 64 298 5.0 10.0 0.00 0.00 0.00 46 1026.0
20260508232116 64 271 3.0 10.0 0.00 0.00 0.00 46 1026.0
20260508231614 66 295 7.0 10.0 0.00 0.00 0.00 44 1026.1
20260508231110 65 317 8.0 12.0 0.00 0.00 0.00 45 1025.9
20260508230606 67 236 0.0 0.0 0.00 0.00 0.00 44 1026.1
20260508225601 64 223 0.0 0.0 0.00 0.00 0.00 46 1026.2
20260508225057 64 241 0.0 5.0 0.00 0.00 0.00 45 1026.2
20260508224555 64 148 0.0 0.0 0.00 0.00 0.00 45 1026.1
20260508224052 64 260 0.0 5.0 0.00 0.00 0.00 45 1026.3
20260508223550 67 297 0.0 0.0 0.00 0.00 0.00 42 1026.1
20260508223047 68 201 2.0 5.0 0.00 0.00 0.00 40 1026.2
20260508222544 68 213 0.0 3.0 0.00 0.00 0.00 42 1026.2
20260508222041 67 195 0.0 0.0 0.00 0.00 0.00 42 1026.1
20260508221537 66 280 0.0 0.0 0.00 0.00 0.00 44 1026.1
20260508221033 64 303 2.0 7.0 0.00 0.00 0.00 46 1026.1
20260508220530 63 280 5.0 7.0 0.00 0.00 0.00 46 1026.0
20260508220026 65 288 0.0 7.0 0.00 0.00 0.00 44 1026.2
20260508215524 67 204 0.0 5.0 0.00 0.00 0.00 45 1026.0
20260508215020 67 199 0.0 7.0 0.00 0.00 0.00 43 1026.0
20260508214518 66 137 1.0 7.0 0.00 0.00 0.00 43 1026.2
20260508214014 66 210 0.0 5.0 0.00 0.00 0.00 44 1026.2
20260508213512 65 235 0.0 0.0 0.00 0.00 0.00 45 1026.2
20260508213007 64 312 0.0 7.0 0.00 0.00 0.00 46 1026.1
20260508212504 64 237 0.0 5.0 0.00 0.00 0.00 46 1026.4
20260508212000 64 197 4.0 7.0 0.00 0.00 0.00 46 1026.4
20260508211455 63 215 0.0 5.0 0.00 0.00 0.00 47 1026.3
20260508210952 63 149 0.0 0.0 0.00 0.00 0.00 48 1026.2
20260508210449 64 219 0.0 0.0 0.00 0.00 0.00 47 1026.2
20260508205945 64 205 0.0 0.0 0.00 0.00 0.00 47 1026.3
20260508205443 63 210 0.0 7.0 0.00 0.00 0.00 46 1025.9
20260508204939 64 172 0.0 10.0 0.00 0.00 0.00 48 1026.1
20260508204437 63 314 0.0 7.0 0.00 0.00 0.00 47 1026.2
20260508203931 63 208 0.0 10.0 0.00 0.00 0.00 48 1026.0
20260508203428 62 147 1.0 5.0 0.00 0.00 0.00 48 1026.0
20260508202924 62 183 0.0 5.0 0.00 0.00 0.00 49 1026.0
20260508202421 60 157 0.0 7.0 0.00 0.00 0.00 51 1026.0
20260508201918 61 212 1.0 12.0 0.00 0.00 0.00 49 1025.8
20260508201415 60 315 1.0 5.0 0.00 0.00 0.00 52 1025.9
20260508200912 61 303 4.0 7.0 0.00 0.00 0.00 51 1025.9
20260508200409 62 264 3.0 10.0 0.00 0.00 0.00 49 1026.1
20260508195904 62 149 0.0 10.0 0.00 0.00 0.00 48 1025.9
20260508195401 64 206 0.0 7.0 0.00 0.00 0.00 47 1026.1
20260508194857 62 137 2.0 12.0 0.00 0.00 0.00 49 1025.7
20260508194354 62 211 1.0 10.0 0.00 0.00 0.00 49 1025.9
20260508193851 63 264 0.0 7.0 0.00 0.00 0.00 46 1026.0
20260508193348 62 219 1.0 7.0 0.00 0.00 0.00 48 1025.9
20260508192844 62 163 5.0 7.0 0.00 0.00 0.00 49 1025.9
20260508192341 61 168 3.0 7.0 0.00 0.00 0.00 49 1025.8
20260508191838 61 241 0.0 3.0 0.00 0.00 0.00 50 1025.8
20260508191336 61 221 2.0 5.0 0.00 0.00 0.00 50 1026.0
20260508190833 59 239 0.0 10.0 0.00 0.00 0.00 54 1025.9
20260508190329 60 279 6.0 10.0 0.00 0.00 0.00 52 1026.1
20260508185826 59 176 1.0 5.0 0.00 0.00 0.00 54 1026.0
20260508185323 58 188 1.0 12.0 0.00 0.00 0.00 56 1025.9
20260508184820 58 252 0.0 5.0 0.00 0.00 0.00 56 1025.7
20260508184317 57 247 0.0 5.0 0.00 0.00 0.00 57 1026.0
20260508183814 57 191 0.0 3.0 0.00 0.00 0.00 58 1026.3
20260508183311 56 245 0.0 0.0 0.00 0.00 0.00 59 1025.9
20260508182806 56 237 0.0 10.0 0.00 0.00 0.00 60 1025.9
20260508182306 57 199 1.0 5.0 0.00 0.00 0.00 59 1025.9
20260508181759 56 144 0.0 5.0 0.00 0.00 0.00 60 1025.8
20260508181256 57 219 0.0 3.0 0.00 0.00 0.00 60 1025.6
20260508180753 57 218 0.0 3.0 0.00 0.00 0.00 60 1025.8
20260508180250 56 216 1.0 5.0 0.00 0.00 0.00 60 1025.5
20260508175746 56 240 0.0 3.0 0.00 0.00 0.00 61 1025.4
20260508175243 56 215 0.0 0.0 0.00 0.00 0.00 61 1025.5
20260508174741 56 253 0.0 3.0 0.00 0.00 0.00 61 1025.4
20260508174238 57 240 0.0 3.0 0.00 0.00 0.00 61 1025.5
20260508173734 56 183 0.0 5.0 0.00 0.00 0.00 62 1025.4
20260508173231 56 164 0.0 3.0 0.00 0.00 0.00 62 1025.3
20260508172727 55 218 0.0 5.0 0.00 0.00 0.00 63 1025.0
20260508172224 56 203 0.0 3.0 0.00 0.00 0.00 61 1025.2
20260508171721 57 229 0.0 0.0 0.00 0.00 0.00 61 1024.9
20260508171217 57 235 0.0 0.0 0.00 0.00 0.00 63 1024.9
20260508170714 56 194 0.0 5.0 0.00 0.00 0.00 63 1024.8
20260508170212 55 240 0.0 3.0 0.00 0.00 0.00 65 1024.9
20260508165709 54 182 0.0 7.0 0.00 0.00 0.00 66 1024.6
20260508165206 54 114 0.0 0.0 0.00 0.00 0.00 66 1024.6
20260508164702 54 235 0.0 0.0 0.00 0.00 0.00 66 1024.7
20260508164159 54 162 0.0 0.0 0.00 0.00 0.00 66 1024.9
20260508163657 53 214 0.0 0.0 0.00 0.00 0.00 68 1024.7
20260508163154 53 212 0.0 0.0 0.00 0.00 0.00 68 1024.8
20260508162649 53 134 0.0 7.0 0.00 0.00 0.00 68 1024.5
20260508162147 53 155 3.0 7.0 0.00 0.00 0.00 68 1024.6
20260508161644 54 176 0.0 0.0 0.00 0.00 0.00 67 1024.6
20260508161142 54 194 0.0 0.0 0.00 0.00 0.00 68 1024.5
20260508160639 53 201 0.0 0.0 0.00 0.00 0.00 69 1024.3
20260508160137 53 243 0.0 0.0 0.00 0.00 0.00 70 1024.6
20260508155634 53 122 0.0 0.0 0.00 0.00 0.00 70 1024.6
20260508155131 53 198 1.0 5.0 0.00 0.00 0.00 70 1024.6
20260508154628 53 151 0.0 3.0 0.00 0.00 0.00 71 1024.7
20260508154124 52 187 0.0 12.0 0.00 0.00 0.00 71 1024.4
20260508153621 53 136 0.0 3.0 0.00 0.00 0.00 71 1024.6
20260508153118 53 117 0.0 0.0 0.00 0.00 0.00 71 1024.6
20260508152615 53 111 1.0 5.0 0.00 0.00 0.00 71 1024.8
20260508152109 52 164 3.0 5.0 0.00 0.00 0.00 72 1024.9
20260508151607 52 162 0.0 3.0 0.00 0.00 0.00 74 1024.8
20260508151104 51 141 0.0 5.0 0.00 0.00 0.00 74 1024.9
20260508150601 52 185 0.0 0.0 0.00 0.00 0.00 75 1024.9
20260508150057 52 202 0.0 0.0 0.00 0.00 0.00 75 1024.6
20260508145554 51 195 0.0 0.0 0.00 0.00 0.00 75 1024.7
20260508145050 51 164 0.0 7.0 0.00 0.00 0.00 75 1024.6
20260508144548 51 107 0.0 3.0 0.00 0.00 0.00 76 1024.7
20260508144045 51 167 3.0 5.0 0.00 0.00 0.00 77 1024.6
20260508143543 51 202 0.0 0.0 0.00 0.00 0.00 77 1024.4
20260508143039 51 174 0.0 0.0 0.00 0.00 0.00 77 1024.3
20260508142536 51 198 0.0 0.0 0.00 0.00 0.00 77 1024.1
20260508142032 50 200 0.0 0.0 0.00 0.00 0.00 77 1024.2
20260508141529 50 204 0.0 0.0 0.00 0.00 0.00 78 1024.2
20260508141027 50 227 0.0 0.0 0.00 0.00 0.00 78 1023.9
20260508140524 50 230 0.0 0.0 0.00 0.00 0.00 79 1023.8
20260508140020 50 206 0.0 0.0 0.00 0.00 0.00 79 1023.8
20260508135516 50 195 0.0 0.0 0.00 0.00 0.00 79 1023.6
20260508135012 50 152 0.0 0.0 0.00 0.00 0.00 79 1023.5
20260508134509 50 166 0.0 0.0 0.00 0.00 0.00 79 1023.4
20260508134006 50 194 0.0 0.0 0.00 0.00 0.00 80 1023.3
20260508133503 50 141 0.0 0.0 0.00 0.00 0.00 80 1023.3
20260508133000 50 192 0.0 0.0 0.00 0.00 0.00 80 1023.3
20260508132458 50 135 0.0 0.0 0.00 0.00 0.00 80 1023.2
20260508131954 49 176 0.0 0.0 0.00 0.00 0.00 81 1023.1
20260508131449 49 176 0.0 0.0 0.00 0.00 0.00 82 1022.9
20260508130946 48 137 0.0 0.0 0.00 0.00 0.00 84 1022.9
20260508130444 48 148 0.0 0.0 0.00 0.00 0.00 84 1022.9
20260508125939 48 144 0.0 0.0 0.00 0.00 0.00 84 1022.8
20260508125435 48 144 0.0 0.0 0.00 0.00 0.00 84 1022.6
20260508124934 47 155 0.0 0.0 0.00 0.00 0.00 84 1022.7
20260508124431 47 165 0.0 0.0 0.00 0.00 0.00 84 1022.5
20260508123928 47 119 0.0 0.0 0.00 0.00 0.00 84 1022.8
20260508123427 47 140 0.0 0.0 0.00 0.00 0.00 84 1022.6
20260508122923 48 154 0.0 0.0 0.00 0.00 0.00 84 1022.4
20260508122420 48 150 0.0 0.0 0.00 0.00 0.00 84 1022.4
20260508121917 48 149 0.0 0.0 0.00 0.00 0.00 84 1022.4
20260508121415 48 138 0.0 0.0 0.00 0.00 0.00 84 1022.2
20260508120913 48 167 0.0 0.0 0.00 0.00 0.00 84 1022.2
20260508120410 48 143 0.0 0.0 0.00 0.00 0.00 84 1022.2
20260508115908 48 156 0.0 0.0 0.00 0.00 0.00 84 1022.0
20260508115406 48 176 0.0 0.0 0.00 0.00 0.00 84 1022.0
20260508114901 48 143 0.0 0.0 0.00 0.00 0.00 84 1022.2
20260508114359 48 152 0.0 0.0 0.00 0.00 0.00 84 1022.0
20260508113855 48 170 0.0 0.0 0.00 0.00 0.00 84 1022.2
20260508113353 48 141 0.0 0.0 0.00 0.00 0.00 84 1022.0
20260508112850 48 146 0.0 0.0 0.00 0.00 0.00 84 1021.9
20260508112347 48 158 0.0 0.0 0.00 0.00 0.00 85 1021.8
20260508111843 48 137 0.0 0.0 0.00 0.00 0.00 85 1021.7
20260508111340 48 138 0.0 0.0 0.00 0.00 0.00 85 1021.7
20260508110838 48 147 0.0 0.0 0.00 0.00 0.00 85 1021.8
20260508110335 48 159 0.0 0.0 0.00 0.00 0.00 85 1021.6
20260508105835 48 140 0.0 0.0 0.00 0.00 0.00 85 1021.4
20260508105332 48 199 0.0 0.0 0.00 0.00 0.00 84 1021.5
20260508104829 48 128 0.0 0.0 0.00 0.00 0.00 84 1021.3
20260508104325 48 154 0.0 0.0 0.00 0.00 0.00 85 1021.3
20260508103823 48 166 0.0 0.0 0.00 0.00 0.00 85 1021.5
20260508103320 48 175 0.0 0.0 0.00 0.00 0.00 85 1021.4
20260508102817 48 161 0.0 0.0 0.00 0.00 0.00 85 1021.1
20260508102315 48 132 0.0 0.0 0.00 0.00 0.00 85 1021.2
20260508101812 48 126 0.0 0.0 0.00 0.00 0.00 85 1021.3
20260508101310 48 135 0.0 0.0 0.00 0.00 0.00 85 1021.3
20260508100807 48 151 0.0 0.0 0.00 0.00 0.00 85 1021.0
20260508100306 48 140 0.0 0.0 0.00 0.00 0.00 85 1021.2
20260508095801 48 159 0.0 0.0 0.00 0.00 0.00 85 1021.2
20260508095259 48 163 0.0 0.0 0.00 0.00 0.00 84 1021.3
20260508094755 48 155 0.0 0.0 0.00 0.00 0.00 84 1021.0
20260508094252 48 150 0.0 0.0 0.00 0.00 0.00 84 1021.2
20260508093749 48 155 0.0 0.0 0.00 0.00 0.00 84 1021.2
20260508093247 49 148 0.0 0.0 0.00 0.00 0.00 84 1021.0
20260508092743 49 148 0.0 0.0 0.00 0.00 0.00 84 1021.1
20260508092242 49 159 0.0 0.0 0.00 0.00 0.00 84 1021.2
20260508091740 49 178 0.0 0.0 0.00 0.00 0.00 83 1021.2
20260508091236 49 154 0.0 0.0 0.00 0.00 0.00 84 1021.2
20260508090734 49 163 0.0 0.0 0.00 0.00 0.00 84 1021.1
20260508090232 49 168 0.0 0.0 0.00 0.00 0.00 84 1021.1
20260508085727 49 138 0.0 0.0 0.00 0.00 0.00 83 1021.2
20260508085225 49 155 0.0 0.0 0.00 0.00 0.00 83 1021.2
20260508084720 49 141 0.0 0.0 0.00 0.00 0.00 83 1021.0
20260508084218 49 136 0.0 0.0 0.00 0.00 0.00 83 1021.0
20260508083715 49 164 0.0 0.0 0.00 0.00 0.00 83 1020.9
20260508083213 49 147 0.0 0.0 0.00 0.00 0.00 83 1021.1
20260508082708 49 185 0.0 0.0 0.00 0.00 0.00 83 1020.8
20260508082206 49 190 0.0 0.0 0.00 0.00 0.00 83 1021.1
20260508081703 49 138 0.0 0.0 0.00 0.00 0.00 83 1021.1
20260508081159 49 179 0.0 0.0 0.00 0.00 0.00 83 1020.8
20260508080657 50 180 0.0 0.0 0.00 0.00 0.00 82 1020.8
20260508080155 50 161 0.0 0.0 0.00 0.00 0.00 82 1021.0
20260508075651 50 154 0.0 0.0 0.00 0.00 0.00 82 1020.9
20260508075148 50 180 0.0 0.0 0.00 0.00 0.00 82 1020.9
20260508074646 50 184 0.0 0.0 0.00 0.00 0.00 81 1020.9
20260508074143 50 184 0.0 0.0 0.00 0.00 0.00 81 1020.9
20260508073640 51 184 0.0 0.0 0.00 0.00 0.00 80 1021.1
20260508073138 51 153 0.0 0.0 0.00 0.00 0.00 80 1021.1
20260508072633 51 145 0.0 0.0 0.00 0.00 0.00 80 1021.1
20260508072130 51 130 0.0 0.0 0.00 0.00 0.00 80 1021.1
20260508071628 50 193 0.0 0.0 0.00 0.00 0.00 81 1021.3
20260508071126 51 202 0.0 0.0 0.00 0.00 0.00 80 1021.1
20260508070623 51 167 0.0 0.0 0.00 0.00 0.00 80 1021.2
20260508070121 51 150 0.0 0.0 0.00 0.00 0.00 80 1021.1
20260508065618 51 147 0.0 0.0 0.00 0.00 0.00 80 1021.1
20260508065116 51 159 0.0 0.0 0.00 0.00 0.00 79 1020.9
20260508064614 51 137 0.0 0.0 0.00 0.00 0.00 79 1021.1
20260508064112 51 151 0.0 0.0 0.00 0.00 0.00 79 1021.1
20260508063609 52 143 0.0 3.0 0.00 0.00 0.00 79 1021.0
20260508063107 52 154 0.0 3.0 0.00 0.00 0.00 79 1021.0
20260508062604 52 178 0.0 0.0 0.00 0.00 0.00 79 1021.1
20260508062100 52 171 0.0 0.0 0.00 0.00 0.00 78 1021.1
20260508061558 52 140 0.0 0.0 0.00 0.00 0.00 78 1021.2
20260508061055 52 133 0.0 0.0 0.00 0.00 0.00 78 1020.9
20260508060552 52 142 0.0 0.0 0.00 0.00 0.00 77 1021.1
20260508060049 53 154 0.0 0.0 0.00 0.00 0.00 77 1021.2
20260508055544 53 131 0.0 0.0 0.00 0.00 0.00 77 1021.2
20260508055042 53 141 0.0 0.0 0.00 0.00 0.00 77 1021.0
20260508054538 53 125 0.0 0.0 0.00 0.00 0.00 76 1021.3
20260508054035 53 146 0.0 0.0 0.00 0.00 0.00 76 1021.2
20260508053532 53 169 0.0 0.0 0.00 0.00 0.00 76 1021.3
20260508053031 54 152 0.0 0.0 0.00 0.00 0.00 75 1021.4
20260508052527 54 170 0.0 0.0 0.00 0.00 0.00 75 1021.4
20260508052024 54 161 0.0 0.0 0.00 0.00 0.00 75 1021.3
20260508051520 53 182 0.0 0.0 0.00 0.00 0.00 75 1021.3
20260508051015 54 181 0.0 0.0 0.00 0.00 0.00 75 1021.5
20260508050512 54 182 0.0 0.0 0.00 0.00 0.00 74 1021.4
20260508050010 54 183 0.0 0.0 0.00 0.00 0.00 74 1021.2
20260508045506 54 183 0.0 0.0 0.00 0.00 0.00 73 1021.3
20260508045003 55 183 0.0 0.0 0.00 0.00 0.00 72 1021.4
20260508044501 55 181 0.0 0.0 0.00 0.00 0.00 72 1021.3
20260508043956 55 184 0.0 0.0 0.00 0.00 0.00 71 1021.3
20260508043453 56 178 0.0 0.0 0.00 0.00 0.00 70 1021.4
20260508042949 56 185 0.0 0.0 0.00 0.00 0.00 70 1021.3